Time,TemperatureF,DewpointF,PressureIn,WindDirection,WindDirectionDegrees,WindSpeedMPH,WindSpeedGustMPH,Humidity,HourlyPrecipIn,Conditions,Clouds,dailyrainin,SoftwareType,DateUTC
2013-02-24 00:04:00,23.7,18.5,30.18,WSW,248,0.0,0.0,80,0.00,,---,0.00,VWS V14.01,2013-02-24 08:04:00,
2013-02-24 00:09:00,23.9,18.6,30.18,WSW,248,0.9,0.9,80,0.00,,---,0.00,VWS V14.01,2013-02-24 08:09:00,
2013-02-24 00:14:00,24.3,19.3,30.18,WSW,248,0.0,0.0,81,0.00,,---,0.00,VWS V14.01,2013-02-24 08:14:00,
2013-02-24 00:19:00,24.1,19.1,30.18,WSW,248,0.0,0.0,81,0.00,,---,0.00,VWS V14.01,2013-02-24 08:19:00,
2013-02-24 00:24:00,24.4,19.7,30.18,SSW,202,0.0,0.0,82,0.00,,---,0.00,VWS V14.01,2013-02-24 08:24:00,
2013-02-24 00:29:00,24.3,19.6,30.18,ENE,68,0.0,0.0,82,0.00,,---,0.00,VWS V14.01,2013-02-24 08:29:00,
2013-02-24 00:34:00,24.4,19.7,30.18,WSW,248,0.0,0.0,82,0.00,,---,0.00,VWS V14.01,2013-02-24 08:34:00,
2013-02-24 00:39:00,24.4,19.7,30.18,SW,225,0.0,0.0,82,0.00,,---,0.00,VWS V14.01,2013-02-24 08:39:00,
2013-02-24 00:44:00,24.4,20.0,30.18,SSE,158,0.0,0.0,83,0.00,,---,0.00,VWS V14.01,2013-02-24 08:44:00,
2013-02-24 00:49:00,24.3,19.9,30.18,SSE,158,0.0,0.0,83,0.00,,---,0.00,VWS V14.01,2013-02-24 08:49:00,
2013-02-24 00:55:00,24.6,20.5,30.18,South,180,0.0,0.0,84,0.00,,---,0.00,VWS V14.01,2013-02-24 08:55:00,
2013-02-24 01:00:00,24.8,21.5,30.21,South,180,2.7,2.7,87,0.00,,---,0.00,VWS V14.01,2013-02-24 09:00:00,
2013-02-24 01:05:00,24.8,21.2,30.21,South,180,0.0,0.0,86,0.00,,---,0.00,VWS V14.01,2013-02-24 09:05:00,
2013-02-24 01:10:00,24.6,20.8,30.21,SSW,202,1.1,1.1,85,0.00,,---,0.00,VWS V14.01,2013-02-24 09:10:00,
2013-02-24 01:15:00,24.6,20.5,30.21,SW,225,0.0,0.0,84,0.00,,---,0.00,VWS V14.01,2013-02-24 09:15:00,
2013-02-24 01:20:00,24.4,20.3,30.21,SSE,158,2.5,2.5,84,0.00,,---,0.00,VWS V14.01,2013-02-24 09:20:00,
2013-02-24 01:25:00,24.6,20.8,30.21,WSW,248,1.3,1.3,85,0.00,,---,0.00,VWS V14.01,2013-02-24 09:25:00,
2013-02-24 01:30:00,24.6,20.8,30.21,SSW,202,1.1,1.1,85,0.00,,---,0.00,VWS V14.01,2013-02-24 09:30:00,
2013-02-24 01:35:00,24.4,20.3,30.21,SSW,202,1.1,1.1,84,0.00,,---,0.00,VWS V14.01,2013-02-24 09:35:00,
2013-02-24 01:40:00,25.0,21.1,30.21,SW,225,0.0,0.0,85,0.00,,---,0.00,VWS V14.01,2013-02-24 09:40:00,
2013-02-24 01:45:00,25.0,21.4,30.21,SE,135,2.0,2.0,86,0.00,,---,0.00,VWS V14.01,2013-02-24 09:45:00,
2013-02-24 01:50:00,25.3,22.0,30.21,WSW,248,0.0,0.0,87,0.00,,---,0.00,VWS V14.01,2013-02-24 09:50:00,
2013-02-24 01:55:00,25.2,21.6,30.21,WSW,248,0.0,0.0,86,0.00,,---,0.00,VWS V14.01,2013-02-24 09:55:00,
2013-02-24 02:00:00,25.7,22.4,30.21,NW,315,0.0,0.0,87,0.00,,---,0.00,VWS V14.01,2013-02-24 10:00:00,
2013-02-24 02:05:00,25.7,22.1,30.21,NNW,338,0.0,0.0,86,0.00,,---,0.00,VWS V14.01,2013-02-24 10:05:00,
2013-02-24 02:11:00,26.2,22.9,30.21,NE,45,2.2,2.2,87,0.00,,---,0.00,VWS V14.01,2013-02-24 10:11:00,
2013-02-24 02:16:00,26.8,23.4,30.21,North,0,1.1,1.1,87,0.00,,---,0.00,VWS V14.01,2013-02-24 10:16:00,
2013-02-24 02:21:00,26.6,23.3,30.21,North,0,0.0,0.0,87,0.00,,---,0.00,VWS V14.01,2013-02-24 10:21:00,
2013-02-24 02:26:00,26.8,23.2,30.21,ENE,68,2.0,2.0,86,0.00,,---,0.00,VWS V14.01,2013-02-24 10:26:00,
2013-02-24 02:31:00,27.0,23.6,30.24,WNW,292,0.0,0.0,87,0.00,,---,0.00,VWS V14.01,2013-02-24 10:31:00,
2013-02-24 02:36:00,27.0,23.3,30.24,South,180,2.2,2.2,86,0.00,,---,0.00,VWS V14.01,2013-02-24 10:36:00,
2013-02-24 02:41:00,27.0,23.1,30.24,South,180,3.6,3.6,85,0.00,,---,0.00,VWS V14.01,2013-02-24 10:41:00,
2013-02-24 02:46:00,27.0,23.3,30.21,ENE,68,2.7,2.7,86,0.00,,---,0.00,VWS V14.01,2013-02-24 10:46:00,
2013-02-24 02:51:00,26.8,22.9,30.21,NNE,22,1.1,1.1,85,0.00,,---,0.00,VWS V14.01,2013-02-24 10:51:00,
2013-02-24 02:56:00,26.6,22.4,30.21,NW,315,0.0,0.0,84,0.00,,---,0.00,VWS V14.01,2013-02-24 10:56:00,
2013-02-24 03:01:00,26.6,22.4,30.24,WSW,248,2.5,2.5,84,0.00,,---,0.00,VWS V14.01,2013-02-24 11:01:00,
2013-02-24 03:06:00,26.6,22.4,30.24,North,0,0.0,0.0,84,0.00,,---,0.00,VWS V14.01,2013-02-24 11:06:00,
2013-02-24 03:11:00,26.2,21.8,30.24,NE,45,1.6,1.6,83,0.00,,---,0.00,VWS V14.01,2013-02-24 11:11:00,
2013-02-24 03:17:00,26.1,21.6,30.24,SW,225,2.5,2.5,83,0.00,,---,0.00,VWS V14.01,2013-02-24 11:17:00,
2013-02-24 03:22:00,26.2,21.8,30.24,NE,45,1.6,1.6,83,0.00,,---,0.00,VWS V14.01,2013-02-24 11:22:00,
2013-02-24 03:27:00,26.1,21.6,30.24,ENE,68,2.5,2.5,83,0.00,,---,0.00,VWS V14.01,2013-02-24 11:27:00,
2013-02-24 03:32:00,26.2,21.8,30.24,North,0,0.0,0.0,83,0.00,,---,0.00,VWS V14.01,2013-02-24 11:32:00,
2013-02-24 03:37:00,27.1,23.2,30.24,East,90,3.1,3.1,85,0.00,,---,0.00,VWS V14.01,2013-02-24 11:37:00,
2013-02-24 03:42:00,27.1,23.0,30.27,East,90,2.5,2.5,84,0.00,,---,0.00,VWS V14.01,2013-02-24 11:42:00,
2013-02-24 03:47:00,27.1,23.0,30.27,ENE,68,0.0,0.0,84,0.00,,---,0.00,VWS V14.01,2013-02-24 11:47:00,
2013-02-24 03:52:00,27.0,22.2,30.27,NE,45,0.0,0.0,82,0.00,,---,0.00,VWS V14.01,2013-02-24 11:52:00,
2013-02-24 03:57:00,27.0,22.5,30.27,East,90,0.0,802.0,83,0.00,,---,0.00,VWS V14.01,2013-02-24 11:57:00,
2013-02-24 04:02:00,27.7,23.2,30.24,WSW,248,0.0,0.0,83,0.00,,---,0.00,VWS V14.01,2013-02-24 12:02:00,
2013-02-24 04:07:00,27.7,23.2,30.24,SSW,202,0.0,0.0,83,0.00,,---,0.00,VWS V14.01,2013-02-24 12:07:00,
2013-02-24 04:12:00,27.5,23.0,30.24,ESE,112,0.0,0.0,83,0.00,,---,0.00,VWS V14.01,2013-02-24 12:12:00,
2013-02-24 04:17:00,27.9,23.7,30.24,ESE,112,0.0,0.0,84,0.00,,---,0.00,VWS V14.01,2013-02-24 12:17:00,
2013-02-24 04:23:00,27.9,23.4,30.24,SSE,158,2.9,2.9,83,0.00,,---,0.00,VWS V14.01,2013-02-24 12:23:00,
2013-02-24 04:28:00,28.0,23.5,30.24,ESE,112,4.0,4.0,83,0.00,,---,0.00,VWS V14.01,2013-02-24 12:28:00,
2013-02-24 04:33:00,27.7,22.6,30.24,SSW,202,1.3,1.3,81,0.00,,---,0.00,VWS V14.01,2013-02-24 12:33:00,
2013-02-24 04:38:00,27.9,22.8,30.24,SSE,158,4.0,4.0,81,0.00,,---,0.00,VWS V14.01,2013-02-24 12:38:00,
2013-02-24 04:43:00,28.2,23.4,30.24,SW,225,0.0,0.0,82,0.00,,---,0.00,VWS V14.01,2013-02-24 12:43:00,
2013-02-24 04:48:00,28.0,23.0,30.24,ESE,112,1.1,1.1,81,0.00,,---,0.00,VWS V14.01,2013-02-24 12:48:00,
2013-02-24 04:54:00,28.2,23.1,30.24,WSW,248,2.2,2.2,81,0.00,,---,0.00,VWS V14.01,2013-02-24 12:54:00,
2013-02-24 04:59:00,28.0,23.0,30.24,SSW,202,2.0,2.0,81,0.00,,---,0.00,VWS V14.01,2013-02-24 12:59:00,
2013-02-24 05:04:00,28.6,23.5,30.24,South,180,1.6,1.6,81,0.00,,---,0.00,VWS V14.01,2013-02-24 13:04:00,
2013-02-24 05:09:00,28.6,23.2,30.24,SW,225,1.1,1.1,80,0.00,,---,0.00,VWS V14.01,2013-02-24 13:09:00,
2013-02-24 05:14:00,28.6,23.2,30.21,SW,225,1.6,1.6,80,0.00,,---,0.00,VWS V14.01,2013-02-24 13:14:00,
2013-02-24 05:19:00,28.8,23.4,30.21,South,180,5.4,5.4,80,0.00,,---,0.00,VWS V14.01,2013-02-24 13:19:00,
2013-02-24 05:24:00,29.1,23.4,30.21,SSE,158,5.4,5.4,79,0.00,,---,0.00,VWS V14.01,2013-02-24 13:24:00,
2013-02-24 05:29:00,28.9,23.0,30.21,WSW,248,4.9,4.9,78,0.00,,---,0.00,VWS V14.01,2013-02-24 13:29:00,
2013-02-24 05:34:00,28.9,23.0,30.21,WNW,292,0.0,0.0,78,0.00,,---,0.00,VWS V14.01,2013-02-24 13:34:00,
2013-02-24 05:39:00,28.4,22.4,30.21,NNW,338,0.0,0.0,78,0.00,,---,0.00,VWS V14.01,2013-02-24 13:39:00,
2013-02-24 05:44:00,28.4,22.4,30.21,SW,225,1.6,1.6,78,0.00,,---,0.00,VWS V14.01,2013-02-24 13:44:00,
2013-02-24 05:49:00,28.6,22.6,30.21,WSW,248,2.9,2.9,78,0.00,,---,0.00,VWS V14.01,2013-02-24 13:49:00,
2013-02-24 05:54:00,28.6,22.6,30.21,NNW,338,1.6,1.6,78,0.00,,---,0.00,VWS V14.01,2013-02-24 13:54:00,
2013-02-24 05:59:00,28.6,22.6,30.21,SW,225,0.0,0.0,78,0.00,,---,0.00,VWS V14.01,2013-02-24 13:59:00,
2013-02-24 06:04:00,27.9,21.9,30.21,NE,45,2.2,2.2,78,0.00,,---,0.00,VWS V14.01,2013-02-24 14:04:00,
2013-02-24 06:09:00,27.7,21.7,30.21,East,90,1.6,1.6,78,0.00,,---,0.00,VWS V14.01,2013-02-24 14:09:00,
2013-02-24 06:14:00,27.3,21.1,30.21,ESE,112,0.0,0.0,77,0.00,,---,0.00,VWS V14.01,2013-02-24 14:14:00,
2013-02-24 06:19:00,27.3,21.4,30.21,SE,135,1.1,1.1,78,0.00,,---,0.00,VWS V14.01,2013-02-24 14:19:00,
2013-02-24 06:24:00,27.1,21.2,30.21,SE,135,2.7,2.7,78,0.00,,---,0.00,VWS V14.01,2013-02-24 14:24:00,
2013-02-24 06:29:00,27.3,21.7,30.21,ENE,68,1.3,1.3,79,0.00,,---,0.00,VWS V14.01,2013-02-24 14:29:00,
2013-02-24 06:35:00,27.3,21.7,30.21,SSE,158,0.0,0.0,79,0.00,,---,0.00,VWS V14.01,2013-02-24 14:35:00,
2013-02-24 06:40:00,28.0,23.0,30.21,WSW,248,0.0,0.0,81,0.00,,---,0.00,VWS V14.01,2013-02-24 14:40:00,
2013-02-24 06:45:00,27.9,22.5,30.21,WSW,248,3.6,3.6,80,0.00,,---,0.00,VWS V14.01,2013-02-24 14:45:00,
2013-02-24 06:50:00,28.4,23.0,30.21,NNE,22,1.1,1.1,80,0.00,,---,0.00,VWS V14.01,2013-02-24 14:50:00,
2013-02-24 06:55:00,27.9,22.2,30.21,ESE,112,0.0,0.0,79,0.00,,---,0.00,VWS V14.01,2013-02-24 14:55:00,
2013-02-24 07:00:00,27.9,22.2,30.21,ENE,68,2.5,2.5,79,0.00,,---,0.00,VWS V14.01,2013-02-24 15:00:00,
2013-02-24 07:05:00,28.9,23.6,30.21,SSW,202,0.0,0.0,80,0.00,,---,0.00,VWS V14.01,2013-02-24 15:05:00,
2013-02-24 07:10:00,28.9,23.3,30.21,NNW,338,0.0,0.0,79,0.00,,---,0.00,VWS V14.01,2013-02-24 15:10:00,
2013-02-24 07:15:00,29.5,23.8,30.24,SE,135,1.3,1.3,79,0.00,,---,0.00,VWS V14.01,2013-02-24 15:15:00,
2013-02-24 07:20:00,30.4,24.4,30.24,SE,135,2.2,2.2,78,0.00,,---,0.00,VWS V14.01,2013-02-24 15:20:00,
2013-02-24 07:25:00,30.9,24.6,30.24,SE,135,2.7,2.7,77,0.00,,---,0.00,VWS V14.01,2013-02-24 15:25:00,
2013-02-24 07:30:00,31.3,24.6,30.24,South,180,0.0,0.0,76,0.00,,---,0.00,VWS V14.01,2013-02-24 15:30:00,
2013-02-24 07:35:00,31.8,24.5,30.24,NNE,22,2.5,2.5,74,0.00,,---,0.00,VWS V14.01,2013-02-24 15:35:00,
2013-02-24 07:40:00,32.2,24.5,30.24,ESE,112,2.5,2.5,73,0.00,,---,0.00,VWS V14.01,2013-02-24 15:40:00,
2013-02-24 07:45:00,33.1,25.4,30.24,North,0,0.0,0.0,73,0.00,,---,0.00,VWS V14.01,2013-02-24 15:45:00,
2013-02-24 07:50:00,34.0,24.9,30.24,SSW,202,4.0,4.0,69,0.00,,---,0.00,VWS V14.01,2013-02-24 15:50:00,
2013-02-24 07:55:00,35.1,25.6,30.24,SSE,158,1.3,1.3,68,0.00,,---,0.00,VWS V14.01,2013-02-24 15:55:00,
2013-02-24 08:01:00,33.8,22.5,30.24,SSE,158,3.1,3.1,63,0.00,,---,0.00,VWS V14.01,2013-02-24 16:01:00,
2013-02-24 08:06:00,33.3,22.8,30.24,SSE,158,5.4,5.4,65,0.00,,---,0.00,VWS V14.01,2013-02-24 16:06:00,
2013-02-24 08:11:00,33.4,23.3,30.24,WSW,248,3.8,3.8,66,0.00,,---,0.00,VWS V14.01,2013-02-24 16:11:00,
2013-02-24 08:16:00,33.3,22.8,30.24,NNE,22,1.3,1.3,65,0.00,,---,0.00,VWS V14.01,2013-02-24 16:16:00,
2013-02-24 08:21:00,33.8,23.3,30.24,NNW,338,1.1,1.1,65,0.00,,---,0.00,VWS V14.01,2013-02-24 16:21:00,
2013-02-24 08:26:00,35.8,24.4,30.24,North,0,4.0,4.0,63,0.00,,---,0.00,VWS V14.01,2013-02-24 16:26:00,
2013-02-24 08:31:00,36.9,24.3,30.24,North,0,2.0,2.0,60,0.00,,---,0.00,VWS V14.01,2013-02-24 16:31:00,
2013-02-24 08:36:00,36.7,23.3,30.24,West,270,4.9,4.9,58,0.00,,---,0.00,VWS V14.01,2013-02-24 16:36:00,
2013-02-24 08:41:00,37.0,23.6,30.24,WNW,292,2.9,2.9,58,0.00,,---,0.00,VWS V14.01,2013-02-24 16:41:00,
2013-02-24 08:46:00,36.5,21.9,30.24,SE,135,2.9,2.9,55,0.00,,---,0.00,VWS V14.01,2013-02-24 16:46:00,
2013-02-24 08:51:00,36.1,21.5,30.24,SSW,202,8.5,8.5,55,0.00,,---,0.00,VWS V14.01,2013-02-24 16:51:00,
2013-02-24 08:57:00,35.4,21.7,30.24,South,180,2.9,2.9,57,0.00,,---,0.00,VWS V14.01,2013-02-24 16:57:00,
2013-02-24 09:02:00,35.1,22.2,30.24,NW,315,2.5,2.5,59,0.00,,---,0.00,VWS V14.01,2013-02-24 17:02:00,
2013-02-24 09:07:00,35.4,22.5,30.24,NW,315,3.6,3.6,59,0.00,,---,0.00,VWS V14.01,2013-02-24 17:07:00,
2013-02-24 09:12:00,35.6,22.7,30.24,SW,225,2.9,2.9,59,0.00,,---,0.00,VWS V14.01,2013-02-24 17:12:00,
2013-02-24 09:17:00,35.4,22.5,30.24,SSW,202,1.6,1.6,59,0.00,,---,0.00,VWS V14.01,2013-02-24 17:17:00,
2013-02-24 09:22:00,35.4,22.9,30.24,SE,135,7.4,7.4,60,0.00,,---,0.00,VWS V14.01,2013-02-24 17:22:00,
2013-02-24 09:27:00,35.4,22.9,30.27,South,180,2.9,2.9,60,0.00,,---,0.00,VWS V14.01,2013-02-24 17:27:00,
2013-02-24 09:32:00,36.3,23.8,30.27,West,270,1.6,1.6,60,0.00,,---,0.00,VWS V14.01,2013-02-24 17:32:00,
2013-02-24 09:37:00,36.5,23.5,30.27,SSW,202,2.9,2.9,59,0.00,,---,0.00,VWS V14.01,2013-02-24 17:37:00,
2013-02-24 09:42:00,38.7,25.2,30.24,SSE,158,2.9,2.9,58,0.00,,---,0.00,VWS V14.01,2013-02-24 17:42:00,
2013-02-24 09:47:00,38.7,24.3,30.24,ESE,112,1.6,1.6,56,0.00,,---,0.00,VWS V14.01,2013-02-24 17:47:00,
2013-02-24 09:53:00,39.0,23.8,30.24,SE,135,3.8,3.8,54,0.00,,---,0.00,VWS V14.01,2013-02-24 17:53:00,
2013-02-24 09:58:00,38.3,22.7,30.24,WNW,292,3.1,3.1,53,0.00,,---,0.00,VWS V14.01,2013-02-24 17:58:00,
2013-02-24 10:03:00,37.9,21.9,30.24,West,270,2.7,2.7,52,0.00,,---,0.00,VWS V14.01,2013-02-24 18:03:00,
2013-02-24 10:08:00,37.9,22.4,30.24,South,180,2.7,2.7,53,0.00,,---,0.00,VWS V14.01,2013-02-24 18:08:00,
2013-02-24 10:13:00,38.1,22.5,30.24,South,180,2.9,2.9,53,0.00,,---,0.00,VWS V14.01,2013-02-24 18:13:00,
2013-02-24 10:18:00,38.1,22.5,30.24,West,270,5.4,5.4,53,0.00,,---,0.00,VWS V14.01,2013-02-24 18:18:00,
2013-02-24 10:23:00,38.1,22.5,30.24,SSW,202,4.0,4.0,53,0.00,,---,0.00,VWS V14.01,2013-02-24 18:23:00,
2013-02-24 10:28:00,38.3,22.7,30.21,WSW,248,3.1,3.1,53,0.00,,---,0.00,VWS V14.01,2013-02-24 18:28:00,
2013-02-24 10:33:00,37.9,21.9,30.21,SW,225,3.8,3.8,52,0.00,,---,0.00,VWS V14.01,2013-02-24 18:33:00,
2013-02-24 10:38:00,37.8,22.2,30.21,WSW,248,2.7,2.7,53,0.00,,---,0.00,VWS V14.01,2013-02-24 18:38:00,
2013-02-24 10:43:00,38.5,22.9,30.24,SE,135,3.6,3.6,53,0.00,,---,0.00,VWS V14.01,2013-02-24 18:43:00,
2013-02-24 10:48:00,38.7,23.0,30.24,East,90,2.5,2.5,53,0.00,,---,0.00,VWS V14.01,2013-02-24 18:48:00,
2013-02-24 10:54:00,39.0,23.4,30.24,WSW,248,2.7,2.7,53,0.00,,---,0.00,VWS V14.01,2013-02-24 18:54:00,
2013-02-24 10:59:00,39.0,22.9,30.24,WSW,248,3.4,3.4,52,0.00,,---,0.00,VWS V14.01,2013-02-24 18:59:00,
2013-02-24 11:04:00,39.2,23.1,30.24,SSW,202,4.9,4.9,52,0.00,,---,0.00,VWS V14.01,2013-02-24 19:04:00,
2013-02-24 11:09:00,39.4,23.2,30.24,SW,225,3.8,3.8,52,0.00,,---,0.00,VWS V14.01,2013-02-24 19:09:00,
2013-02-24 11:14:00,39.4,23.2,30.24,NW,315,2.7,2.7,52,0.00,,---,0.00,VWS V14.01,2013-02-24 19:14:00,
2013-02-24 11:19:00,38.8,22.7,30.24,West,270,3.1,3.1,52,0.00,,---,0.00,VWS V14.01,2013-02-24 19:19:00,
2013-02-24 11:24:00,38.7,22.6,30.24,South,180,3.4,3.4,52,0.00,,---,0.00,VWS V14.01,2013-02-24 19:24:00,
2013-02-24 11:29:00,39.4,23.2,30.24,WSW,248,3.4,3.4,52,0.00,,---,0.00,VWS V14.01,2013-02-24 19:29:00,
2013-02-24 11:34:00,39.4,23.2,30.24,WSW,248,5.4,5.4,52,0.00,,---,0.00,VWS V14.01,2013-02-24 19:34:00,
2013-02-24 11:39:00,40.1,23.4,30.24,SW,225,6.3,6.3,51,0.00,,---,0.00,VWS V14.01,2013-02-24 19:39:00,
2013-02-24 11:44:00,41.0,23.8,30.24,WSW,248,4.7,4.7,50,0.00,,---,0.00,VWS V14.01,2013-02-24 19:44:00,
2013-02-24 11:49:00,42.4,24.6,30.24,NNW,338,0.0,0.0,49,0.00,,---,0.00,VWS V14.01,2013-02-24 19:49:00,
2013-02-24 11:55:00,43.0,24.1,30.24,SW,225,2.2,2.2,47,0.00,,---,0.00,VWS V14.01,2013-02-24 19:55:00,
2013-02-24 12:00:00,42.6,23.3,30.24,South,180,2.9,2.9,46,0.00,,---,0.00,VWS V14.01,2013-02-24 20:00:00,
2013-02-24 12:05:00,43.3,24.0,30.24,West,270,4.3,4.3,46,0.00,,---,0.00,VWS V14.01,2013-02-24 20:05:00,
2013-02-24 12:10:00,44.2,23.7,30.24,WSW,248,4.0,4.0,44,0.00,,---,1.47,VWS V14.01,2013-02-24 20:10:00,
2013-02-24 12:15:00,44.6,23.5,30.24,SSW,202,2.9,2.9,43,0.00,,---,0.00,VWS V14.01,2013-02-24 20:15:00,
2013-02-24 12:20:00,44.4,23.9,30.24,WSW,248,4.9,4.9,44,0.00,,---,0.00,VWS V14.01,2013-02-24 20:20:00,
2013-02-24 12:25:00,43.9,22.9,30.24,SW,225,3.1,3.1,43,0.00,,---,0.00,VWS V14.01,2013-02-24 20:25:00,
2013-02-24 12:30:00,44.1,22.5,30.24,WSW,248,3.8,3.8,42,0.00,,---,0.00,VWS V14.01,2013-02-24 20:30:00,
2013-02-24 12:35:00,43.9,22.9,30.24,WSW,248,3.6,3.6,43,0.00,,---,0.00,VWS V14.01,2013-02-24 20:35:00,
2013-02-24 12:40:00,43.9,22.3,30.24,WSW,248,2.9,2.9,42,0.00,,---,0.00,VWS V14.01,2013-02-24 20:40:00,
2013-02-24 12:45:00,43.0,22.0,30.21,South,180,4.5,4.5,43,0.00,,---,0.00,VWS V14.01,2013-02-24 20:45:00,
2013-02-24 12:51:00,43.2,22.2,30.21,NW,315,3.4,3.4,43,0.00,,---,0.00,VWS V14.01,2013-02-24 20:51:00,
2013-02-24 12:56:00,43.5,22.5,30.21,SW,225,2.9,2.9,43,0.00,,---,0.00,VWS V14.01,2013-02-24 20:56:00,
2013-02-24 13:01:00,43.0,22.0,30.21,West,270,2.9,2.9,43,0.00,,---,0.00,VWS V14.01,2013-02-24 21:01:00,
2013-02-24 13:06:00,43.0,22.0,30.21,SW,225,3.6,3.6,43,0.00,,---,0.00,VWS V14.01,2013-02-24 21:06:00,
2013-02-24 13:11:00,43.2,22.7,30.21,ESE,112,3.6,3.6,44,0.00,,---,0.00,VWS V14.01,2013-02-24 21:11:00,
2013-02-24 13:16:00,43.0,22.0,30.21,West,270,6.3,6.3,43,0.00,,---,0.00,VWS V14.01,2013-02-24 21:16:00,
2013-02-24 13:21:00,43.0,22.0,30.21,SE,135,3.8,3.8,43,0.00,,---,0.00,VWS V14.01,2013-02-24 21:21:00,
2013-02-24 13:26:00,43.5,23.1,30.21,NW,315,2.0,2.0,44,0.00,,---,0.00,VWS V14.01,2013-02-24 21:26:00,
2013-02-24 13:31:00,43.3,21.8,30.21,NW,315,3.8,3.8,42,0.00,,---,0.00,VWS V14.01,2013-02-24 21:31:00,
2013-02-24 13:36:00,43.0,21.5,30.21,WSW,248,10.1,10.1,42,0.00,,---,0.00,VWS V14.01,2013-02-24 21:36:00,
2013-02-24 13:41:00,42.4,21.5,30.21,West,270,2.9,2.9,43,0.00,,---,0.00,VWS V14.01,2013-02-24 21:41:00,
2013-02-24 13:46:00,42.3,21.9,30.18,South,180,3.1,3.1,44,0.00,,---,0.00,VWS V14.01,2013-02-24 21:46:00,
2013-02-24 13:52:00,42.1,21.8,30.18,WNW,292,1.1,1.1,44,0.00,,---,0.00,VWS V14.01,2013-02-24 21:52:00,
2013-02-24 13:57:00,41.7,21.4,30.18,SW,225,7.6,7.6,44,0.00,,---,0.00,VWS V14.01,2013-02-24 21:57:00,
2013-02-24 14:02:00,41.5,21.3,30.18,ESE,112,2.5,2.5,44,0.00,,---,0.00,VWS V14.01,2013-02-24 22:02:00,
2013-02-24 14:07:00,41.5,21.8,30.18,WSW,248,3.8,3.8,45,0.00,,---,0.00,VWS V14.01,2013-02-24 22:07:00,
2013-02-24 14:12:00,41.5,21.3,30.18,WSW,248,4.3,4.3,44,0.00,,---,0.00,VWS V14.01,2013-02-24 22:12:00,
2013-02-24 14:17:00,41.7,22.0,30.18,South,180,1.1,1.1,45,0.00,,---,0.00,VWS V14.01,2013-02-24 22:17:00,
2013-02-24 14:22:00,41.7,21.4,30.18,West,270,6.7,6.7,44,0.00,,---,0.00,VWS V14.01,2013-02-24 22:22:00,
2013-02-24 14:27:00,41.7,21.4,30.18,SSW,202,1.6,1.6,44,0.00,,---,0.00,VWS V14.01,2013-02-24 22:27:00,
2013-02-24 14:32:00,41.7,22.0,30.18,WNW,292,4.3,4.3,45,0.00,,---,0.00,VWS V14.01,2013-02-24 22:32:00,
2013-02-24 14:37:00,41.9,22.1,30.18,WSW,248,3.6,3.6,45,0.00,,---,0.00,VWS V14.01,2013-02-24 22:37:00,
2013-02-24 14:42:00,41.9,21.6,30.18,NNW,338,4.0,4.0,44,0.00,,---,0.00,VWS V14.01,2013-02-24 22:42:00,
2013-02-24 14:47:00,42.1,21.8,30.18,West,270,2.7,2.7,44,0.00,,---,0.00,VWS V14.01,2013-02-24 22:47:00,
2013-02-24 14:53:00,42.1,21.8,30.18,WNW,292,4.3,4.3,44,0.00,,---,0.00,VWS V14.01,2013-02-24 22:53:00,
2013-02-24 14:58:00,42.1,21.8,30.21,WSW,248,3.6,3.6,44,0.00,,---,0.00,VWS V14.01,2013-02-24 22:58:00,
2013-02-24 15:03:00,42.1,21.8,30.21,SW,225,2.5,2.5,44,0.00,,---,0.00,VWS V14.01,2013-02-24 23:03:00,
2013-02-24 15:08:00,42.4,22.1,30.21,South,180,4.9,4.9,44,0.00,,---,0.00,VWS V14.01,2013-02-24 23:08:00,
2013-02-24 15:13:00,42.4,22.1,30.18,SSW,202,1.3,1.3,44,0.00,,---,0.00,VWS V14.01,2013-02-24 23:13:00,
2013-02-24 15:18:00,43.0,22.0,30.18,SSW,202,4.3,4.3,43,0.00,,---,0.00,VWS V14.01,2013-02-24 23:18:00,
2013-02-24 15:23:00,43.3,22.9,30.18,WSW,248,1.3,1.3,44,0.00,,---,0.00,VWS V14.01,2013-02-24 23:23:00,
2013-02-24 15:28:00,43.0,22.6,30.18,WNW,292,1.6,1.6,44,0.00,,---,0.00,VWS V14.01,2013-02-24 23:28:00,
2013-02-24 15:33:00,42.1,21.8,30.18,WSW,248,3.6,3.6,44,0.00,,---,0.00,VWS V14.01,2013-02-24 23:33:00,
2013-02-24 15:38:00,41.7,22.0,30.18,WSW,248,2.7,2.7,45,0.00,,---,0.00,VWS V14.01,2013-02-24 23:38:00,
2013-02-24 15:43:00,41.4,21.6,30.18,WNW,292,2.0,2.0,45,0.00,,---,0.00,VWS V14.01,2013-02-24 23:43:00,
2013-02-24 15:48:00,41.0,21.8,30.18,SSW,202,2.0,2.0,46,0.00,,---,0.00,VWS V14.01,2013-02-24 23:48:00,
2013-02-24 15:53:00,41.0,22.3,30.18,WSW,248,3.6,3.6,47,0.00,,---,0.00,VWS V14.01,2013-02-24 23:53:00,
2013-02-24 15:58:00,40.6,22.0,30.18,SW,225,3.8,3.8,47,0.00,,---,0.00,VWS V14.01,2013-02-24 23:58:00,
2013-02-24 16:04:00,40.6,22.0,30.18,SW,225,2.5,2.5,47,0.00,,---,0.00,VWS V14.01,2013-02-25 00:04:00,
2013-02-24 16:09:00,40.5,22.3,30.18,WNW,292,2.7,2.7,48,0.00,,---,0.00,VWS V14.01,2013-02-25 00:09:00,
2013-02-24 16:14:00,40.5,22.3,30.18,SSE,158,2.5,2.5,48,0.00,,---,0.00,VWS V14.01,2013-02-25 00:14:00,
2013-02-24 16:19:00,40.5,22.8,30.18,SSE,158,2.9,2.9,49,0.00,,---,0.00,VWS V14.01,2013-02-25 00:19:00,
2013-02-24 16:24:00,40.3,22.7,30.18,South,180,1.1,1.1,49,0.00,,---,0.00,VWS V14.01,2013-02-25 00:24:00,
2013-02-24 16:29:00,40.1,22.5,30.18,WSW,248,1.6,1.6,49,0.00,,---,0.00,VWS V14.01,2013-02-25 00:29:00,
2013-02-24 16:34:00,39.9,22.3,30.18,ESE,112,0.0,0.0,49,0.00,,---,0.00,VWS V14.01,2013-02-25 00:34:00,
2013-02-24 16:39:00,39.7,22.2,30.18,East,90,1.3,1.3,49,0.00,,---,0.00,VWS V14.01,2013-02-25 00:39:00,
2013-02-24 16:44:00,39.6,22.0,30.18,SSE,158,1.6,1.6,49,0.00,,---,0.00,VWS V14.01,2013-02-25 00:44:00,
2013-02-24 16:49:00,39.4,22.3,30.18,SSW,202,1.6,1.6,50,0.00,,---,0.00,VWS V14.01,2013-02-25 00:49:00,
2013-02-24 16:54:00,39.4,22.3,30.18,South,180,3.8,3.8,50,0.00,,---,0.00,VWS V14.01,2013-02-25 00:54:00,
2013-02-24 16:59:00,39.4,22.3,30.18,West,270,0.0,0.0,50,0.00,,---,0.00,VWS V14.01,2013-02-25 00:59:00,
2013-02-24 17:04:00,39.2,22.1,30.18,WSW,248,0.0,0.0,50,0.00,,---,0.00,VWS V14.01,2013-02-25 01:04:00,
2013-02-24 17:10:00,39.0,22.4,30.18,SW,225,0.9,0.9,51,0.00,,---,0.00,VWS V14.01,2013-02-25 01:10:00,
2013-02-24 17:15:00,39.0,22.4,30.15,SSE,158,1.1,1.1,51,0.00,,---,0.00,VWS V14.01,2013-02-25 01:15:00,
2013-02-24 17:20:00,38.8,22.3,30.15,South,180,2.0,2.0,51,0.00,,---,0.00,VWS V14.01,2013-02-25 01:20:00,
2013-02-24 17:25:00,38.7,22.6,30.15,SSE,158,4.0,4.0,52,0.00,,---,0.00,VWS V14.01,2013-02-25 01:25:00,
2013-02-24 17:30:00,38.7,22.6,30.15,ESE,112,2.5,2.5,52,0.00,,---,0.00,VWS V14.01,2013-02-25 01:30:00,
2013-02-24 17:35:00,38.5,23.3,30.15,ESE,112,1.3,1.3,54,0.00,,---,0.00,VWS V14.01,2013-02-25 01:35:00,
2013-02-24 17:40:00,38.3,23.1,30.15,ESE,112,2.0,2.0,54,0.00,,---,0.00,VWS V14.01,2013-02-25 01:40:00,
2013-02-24 17:45:00,38.1,23.0,30.15,SSE,158,2.2,2.2,54,0.00,,---,0.00,VWS V14.01,2013-02-25 01:45:00,
2013-02-24 17:50:00,37.9,22.8,30.15,SSE,158,2.7,2.7,54,0.00,,---,0.00,VWS V14.01,2013-02-25 01:50:00,
2013-02-24 17:55:00,37.9,23.2,30.15,SSW,202,4.3,4.3,55,0.00,,---,0.00,VWS V14.01,2013-02-25 01:55:00,
2013-02-24 18:00:00,37.8,23.1,30.12,South,180,2.5,2.5,55,0.00,,---,0.00,VWS V14.01,2013-02-25 02:00:00,
2013-02-24 18:05:00,37.8,23.1,30.12,South,180,2.7,2.7,55,0.00,,---,0.00,VWS V14.01,2013-02-25 02:05:00,
2013-02-24 18:10:00,37.6,22.9,30.12,NNW,338,2.0,2.0,55,0.00,,---,0.00,VWS V14.01,2013-02-25 02:10:00,
2013-02-24 18:16:00,37.6,22.9,30.12,South,180,2.9,2.9,55,0.00,,---,0.00,VWS V14.01,2013-02-25 02:16:00,
2013-02-24 18:24:00,37.6,22.9,30.12,SSE,158,0.9,0.9,55,0.00,,---,0.00,VWS V14.01,2013-02-25 02:24:00,
2013-02-24 18:29:00,37.4,22.7,30.15,SSE,158,0.9,0.9,55,0.00,,---,0.00,VWS V14.01,2013-02-25 02:29:00,
2013-02-24 18:34:00,37.4,22.7,30.15,WSW,248,4.0,4.0,55,0.00,,---,0.00,VWS V14.01,2013-02-25 02:34:00,
2013-02-24 18:39:00,37.4,22.3,30.15,SW,225,3.1,3.1,54,0.00,,---,0.00,VWS V14.01,2013-02-25 02:39:00,
2013-02-24 18:44:00,37.2,22.6,30.12,South,180,2.9,2.9,55,0.00,,---,0.00,VWS V14.01,2013-02-25 02:44:00,
2013-02-24 18:50:00,37.0,22.4,30.12,SSE,158,1.1,1.1,55,0.00,,---,0.00,VWS V14.01,2013-02-25 02:50:00,
2013-02-24 18:55:00,36.9,22.2,30.12,SE,135,3.1,3.1,55,0.00,,---,0.00,VWS V14.01,2013-02-25 02:55:00,
2013-02-24 19:00:00,36.5,21.9,30.12,South,180,2.5,2.5,55,0.00,,---,0.00,VWS V14.01,2013-02-25 03:00:00,
2013-02-24 19:05:00,36.3,22.1,30.12,SSE,158,5.8,5.8,56,0.00,,---,0.00,VWS V14.01,2013-02-25 03:05:00,
2013-02-24 19:10:00,36.3,22.1,30.12,SSE,158,2.5,2.5,56,0.00,,---,0.00,VWS V14.01,2013-02-25 03:10:00,
2013-02-24 19:15:00,36.3,22.1,30.12,South,180,2.9,2.9,56,0.00,,---,0.00,VWS V14.01,2013-02-25 03:15:00,
2013-02-24 19:20:00,36.3,22.1,30.12,SSE,158,2.2,2.2,56,0.00,,---,0.00,VWS V14.01,2013-02-25 03:20:00,
2013-02-24 19:25:00,36.1,22.0,30.12,SE,135,3.1,3.1,56,0.00,,---,0.00,VWS V14.01,2013-02-25 03:25:00,
2013-02-24 19:30:00,36.1,22.0,30.12,SSE,158,1.3,1.3,56,0.00,,---,0.00,VWS V14.01,2013-02-25 03:30:00,
2013-02-24 19:35:00,36.3,22.1,30.12,SSE,158,3.1,3.1,56,0.00,,---,0.00,VWS V14.01,2013-02-25 03:35:00,
2013-02-24 19:40:00,36.3,22.1,30.12,SE,135,1.6,1.6,56,0.00,,---,0.00,VWS V14.01,2013-02-25 03:40:00,
2013-02-24 19:45:00,36.5,22.3,30.12,SE,135,4.3,4.3,56,0.00,,---,0.00,VWS V14.01,2013-02-25 03:45:00,
2013-02-24 19:51:00,36.7,22.5,30.12,SSE,158,3.1,3.1,56,0.00,,---,0.00,VWS V14.01,2013-02-25 03:51:00,
2013-02-24 19:56:00,36.9,22.2,30.12,ESE,112,2.9,2.9,55,0.00,,---,0.00,VWS V14.01,2013-02-25 03:56:00,
2013-02-24 20:01:00,36.9,22.2,30.09,South,180,2.5,2.5,55,0.00,,---,0.00,VWS V14.01,2013-02-25 04:01:00,
2013-02-24 20:06:00,36.9,22.2,30.09,SE,135,2.7,2.7,55,0.00,,---,0.00,VWS V14.01,2013-02-25 04:06:00,
2013-02-24 20:11:00,36.9,22.6,30.09,SSW,202,4.0,4.0,56,0.00,,---,0.00,VWS V14.01,2013-02-25 04:11:00,
2013-02-24 20:16:00,36.9,22.6,30.12,SSE,158,2.7,2.7,56,0.00,,---,0.00,VWS V14.01,2013-02-25 04:16:00,
2013-02-24 20:21:00,36.9,22.6,30.12,SSE,158,4.9,4.9,56,0.00,,---,0.00,VWS V14.01,2013-02-25 04:21:00,
2013-02-24 20:26:00,36.9,22.6,30.12,SE,135,2.7,2.7,56,0.00,,---,0.00,VWS V14.01,2013-02-25 04:26:00,
2013-02-24 20:31:00,36.7,22.5,30.12,South,180,2.5,2.5,56,0.00,,---,0.00,VWS V14.01,2013-02-25 04:31:00,
2013-02-24 20:36:00,36.7,22.5,30.12,SE,135,3.6,3.6,56,0.00,,---,0.00,VWS V14.01,2013-02-25 04:36:00,
2013-02-24 20:41:00,36.7,22.5,30.12,SSW,202,3.6,3.6,56,0.00,,---,0.00,VWS V14.01,2013-02-25 04:41:00,
2013-02-24 20:46:00,36.7,22.5,30.12,SSW,202,3.4,3.4,56,0.00,,---,0.00,VWS V14.01,2013-02-25 04:46:00,
2013-02-24 20:51:00,36.7,22.5,30.12,SE,135,3.1,3.1,56,0.00,,---,0.00,VWS V14.01,2013-02-25 04:51:00,
2013-02-24 20:56:00,36.7,22.5,30.12,ESE,112,2.7,2.7,56,0.00,,---,0.00,VWS V14.01,2013-02-25 04:56:00,
2013-02-24 21:00:00,36.7,22.5,30.09,ESE,112,3.4,3.4,56,0.00,,---,0.00,VWS V14.01,2013-02-25 05:00:00,
2013-02-24 21:02:00,36.7,22.5,30.09,ESE,112,4.0,4.0,56,0.00,,---,0.00,VWS V14.01,2013-02-25 05:02:00,
2013-02-24 21:07:00,36.7,22.5,30.09,SSW,202,3.4,3.4,56,0.00,,---,0.00,VWS V14.01,2013-02-25 05:07:00,
2013-02-24 21:12:00,36.7,22.5,30.09,SE,135,3.4,3.4,56,0.00,,---,0.00,VWS V14.01,2013-02-25 05:12:00,
2013-02-24 21:17:00,36.7,22.0,30.09,SSW,202,2.9,2.9,55,0.00,,---,0.00,VWS V14.01,2013-02-25 05:17:00,
2013-02-24 21:22:00,36.7,22.0,30.09,SE,135,1.6,1.6,55,0.00,,---,0.00,VWS V14.01,2013-02-25 05:22:00,
2013-02-24 21:27:00,36.9,22.2,30.09,ESE,112,4.0,4.0,55,0.00,,---,0.00,VWS V14.01,2013-02-25 05:27:00,
2013-02-24 21:33:00,36.9,21.8,30.09,ESE,112,3.8,3.8,54,0.00,,---,0.00,VWS V14.01,2013-02-25 05:33:00,
2013-02-24 21:38:00,36.9,21.8,30.09,ESE,112,3.6,3.6,54,0.00,,---,0.00,VWS V14.01,2013-02-25 05:38:00,
2013-02-24 21:43:00,36.9,21.8,30.09,ESE,112,3.4,3.4,54,0.00,,---,0.00,VWS V14.01,2013-02-25 05:43:00,
2013-02-24 21:48:00,36.9,21.8,30.09,East,90,3.8,3.8,54,0.00,,---,0.00,VWS V14.01,2013-02-25 05:48:00,
2013-02-24 21:53:00,36.9,21.3,30.09,ESE,112,4.9,4.9,53,0.00,,---,0.00,VWS V14.01,2013-02-25 05:53:00,
2013-02-24 21:58:00,36.9,21.8,30.09,ESE,112,3.1,3.1,54,0.00,,---,0.00,VWS V14.01,2013-02-25 05:58:00,
2013-02-24 22:03:00,36.7,22.0,30.09,ESE,112,3.4,3.4,55,0.00,,---,0.00,VWS V14.01,2013-02-25 06:03:00,
2013-02-24 22:08:00,36.7,22.0,30.09,ESE,112,4.3,4.3,55,0.00,,---,0.00,VWS V14.01,2013-02-25 06:08:00,
2013-02-24 22:13:00,36.5,22.3,30.09,ESE,112,3.4,3.4,56,0.00,,---,0.00,VWS V14.01,2013-02-25 06:13:00,
2013-02-24 22:18:00,36.3,22.1,30.09,East,90,2.9,2.9,56,0.00,,---,0.00,VWS V14.01,2013-02-25 06:18:00,
2013-02-24 22:23:00,36.3,22.1,30.09,East,90,2.7,2.7,56,0.00,,---,0.00,VWS V14.01,2013-02-25 06:23:00,
2013-02-24 22:29:00,36.1,22.4,30.06,ESE,112,3.4,3.4,57,0.00,,---,0.00,VWS V14.01,2013-02-25 06:29:00,
2013-02-24 22:34:00,36.1,22.4,30.06,ESE,112,3.1,3.1,57,0.00,,---,0.00,VWS V14.01,2013-02-25 06:34:00,
2013-02-24 22:39:00,36.0,22.6,30.06,ESE,112,2.9,2.9,58,0.00,,---,0.00,VWS V14.01,2013-02-25 06:39:00,
2013-02-24 22:44:00,35.8,22.5,30.03,East,90,2.7,2.7,58,0.00,,---,0.00,VWS V14.01,2013-02-25 06:44:00,
2013-02-24 22:49:00,35.8,22.5,30.03,ENE,68,2.9,2.9,58,0.00,,---,0.00,VWS V14.01,2013-02-25 06:49:00,
2013-02-24 22:54:00,35.8,22.5,30.03,ENE,68,2.9,2.9,58,0.00,,---,0.00,VWS V14.01,2013-02-25 06:54:00,
2013-02-24 22:59:00,35.8,22.5,30.06,ENE,68,1.1,1.1,58,0.00,,---,0.00,VWS V14.01,2013-02-25 06:59:00,
2013-02-24 23:04:00,35.8,21.6,30.06,South,180,5.8,5.8,56,0.00,,---,0.00,VWS V14.01,2013-02-25 07:04:00,
2013-02-24 23:09:00,36.3,21.7,30.06,ESE,112,6.0,6.0,55,0.00,,---,0.00,VWS V14.01,2013-02-25 07:09:00,
2013-02-24 23:14:00,36.5,21.5,30.03,ESE,112,2.5,2.5,54,0.00,,---,0.00,VWS V14.01,2013-02-25 07:14:00,
2013-02-24 23:19:00,36.7,21.6,30.03,East,90,3.8,3.8,54,0.00,,---,0.00,VWS V14.01,2013-02-25 07:19:00,
2013-02-24 23:24:00,36.7,21.6,30.03,ESE,112,4.9,4.9,54,0.00,,---,0.00,VWS V14.01,2013-02-25 07:24:00,
2013-02-24 23:29:00,36.5,21.5,30.03,ESE,112,5.8,5.8,54,0.00,,---,0.00,VWS V14.01,2013-02-25 07:29:00,
2013-02-24 23:34:00,36.5,21.0,30.03,ESE,112,5.4,5.4,53,0.00,,---,0.00,VWS V14.01,2013-02-25 07:34:00,
2013-02-24 23:40:00,36.7,21.2,30.03,ESE,112,4.0,4.0,53,0.00,,---,0.00,VWS V14.01,2013-02-25 07:40:00,
2013-02-24 23:45:00,36.9,21.3,30.03,ESE,112,5.6,5.6,53,0.00,,---,0.00,VWS V14.01,2013-02-25 07:45:00,
2013-02-24 23:50:00,37.0,21.5,30.03,SE,135,2.7,2.7,53,0.00,,---,0.00,VWS V14.01,2013-02-25 07:50:00,
2013-02-24 23:55:00,37.0,21.1,30.03,SSE,158,2.2,2.2,52,0.00,,---,0.00,VWS V14.01,2013-02-25 07:55:00,